BCS28M EDDK-EDDP

Flight info

Callsign BCS28M
Flight time 0h 55m
Altitude 23000
Route KUMIK7M KUMIK L603 TESGA Z719 OSBIT L984 SULUS Z12 LASGA T953 VOCIM T954 GOXLI GOXLI1V
Aircraft B77L/H-SDE1E2E3FGHIJ2J3J4J5M1RWXY/LB1D1

Departure

Time 2026-04-22 15:39
Airport Cologne Bonn Airport (EDDK)

Arrival

Time 2026-04-22 16:35
Airport Leipzig/Halle Airport (EDDP)
Time Latitude Longitude Altitude Speed Heading
2026-04-22 15:02 50.87175 7.13362 239 ft 0 kts 227°
2026-04-22 15:28 50.87177 7.13366 239 ft 3 kts 228°
2026-04-22 15:29 50.87194 7.13398 239 ft 4 kts 236°
2026-04-22 15:29 50.87208 7.13435 239 ft 4 kts 247°
2026-04-22 15:29 50.87215 7.13475 240 ft 4 kts 270°
2026-04-22 15:30 50.87209 7.13509 240 ft 2 kts 317°
2026-04-22 15:34 50.87214 7.13502 240 ft 7 kts 317°
2026-04-22 15:34 50.87273 7.13416 238 ft 13 kts 317°
2026-04-22 15:34 50.87343 7.13314 237 ft 14 kts 317°
2026-04-22 15:34 50.87415 7.13210 237 ft 14 kts 317°
2026-04-22 15:35 50.87462 7.13142 237 ft 14 kts 317°
2026-04-22 15:35 50.87558 7.13003 237 ft 14 kts 317°
2026-04-22 15:35 50.87630 7.12899 237 ft 14 kts 317°
2026-04-22 15:35 50.87700 7.12797 237 ft 14 kts 317°
2026-04-22 15:36 50.87772 7.12694 237 ft 14 kts 317°
2026-04-22 15:36 50.87854 7.12615 237 ft 14 kts 347°
2026-04-22 15:36 50.87944 7.12657 237 ft 14 kts 34°
2026-04-22 15:36 50.87988 7.12731 240 ft 0 kts 63°
2026-04-22 15:38 50.88020 7.12914 243 ft 12 kts 87°
2026-04-22 15:38 50.87995 7.12985 243 ft 0 kts 133°
2026-04-22 15:39 50.87892 7.13137 243 ft 62 kts 137°
2026-04-22 15:39 50.87336 7.13943 246 ft 152 kts 136°
2026-04-22 15:39 50.86427 7.15280 588 ft 191 kts 136°
2026-04-22 15:39 50.85467 7.16658 1699 ft 182 kts 136°
2026-04-22 15:40 50.84499 7.18002 2503 ft 195 kts 137°
2026-04-22 15:40 50.83440 7.19469 3093 ft 206 kts 136°
2026-04-22 15:40 50.82369 7.20995 3858 ft 209 kts 131°
2026-04-22 15:40 50.81575 7.22915 4574 ft 210 kts 107°
2026-04-22 15:41 50.81341 7.25191 5290 ft 215 kts 94°
2026-04-22 15:41 50.81145 7.27706 5577 ft 246 kts 97°
2026-04-22 15:41 50.80903 7.30459 6308 ft 257 kts 98°
2026-04-22 15:41 50.80655 7.33280 7273 ft 260 kts 98°
2026-04-22 15:42 50.80408 7.36122 8237 ft 263 kts 97°
2026-04-22 15:42 50.80159 7.38972 9182 ft 266 kts 97°
2026-04-22 15:42 50.79901 7.41902 10078 ft 272 kts 96°
2026-04-22 15:42 50.79639 7.44894 10842 ft 280 kts 96°
2026-04-22 15:43 50.79361 7.48088 11168 ft 308 kts 96°
2026-04-22 15:43 50.79052 7.51601 11412 ft 337 kts 96°
2026-04-22 15:43 50.78715 7.55397 11885 ft 356 kts 96°
2026-04-22 15:43 50.78404 7.59319 12732 ft 360 kts 91°
2026-04-22 15:44 50.78607 7.63302 13502 ft 368 kts 78°
2026-04-22 15:44 50.79125 7.67271 14495 ft 371 kts 77°
2026-04-22 15:44 50.79631 7.71276 15521 ft 372 kts 77°
2026-04-22 15:44 50.80115 7.75314 16471 ft 376 kts 78°
2026-04-22 15:45 50.80586 7.79404 17382 ft 381 kts 78°
2026-04-22 15:45 50.81051 7.83542 18267 ft 385 kts 78°
2026-04-22 15:45 50.81516 7.87742 19086 ft 390 kts 78°
2026-04-22 15:45 50.81985 7.91988 19855 ft 394 kts 78°
2026-04-22 15:46 50.82456 7.96276 20596 ft 398 kts 78°
2026-04-22 15:46 50.82931 8.00625 21370 ft 403 kts 78°
2026-04-22 15:46 50.83191 8.04982 21854 ft 410 kts 91°
2026-04-22 15:46 50.82582 8.09460 22433 ft 424 kts 107°
2026-04-22 15:47 50.81191 8.13597 23169 ft 431 kts 120°
2026-04-22 15:47 50.79472 8.17549 23472 ft 440 kts 121°
2026-04-22 15:47 50.77715 8.21551 23444 ft 448 kts 121°
2026-04-22 15:47 50.75900 8.25737 23388 ft 458 kts 121°
2026-04-22 15:48 50.74114 8.29925 23344 ft 460 kts 120°
2026-04-22 15:48 50.72361 8.34057 23320 ft 457 kts 121°
2026-04-22 15:48 50.70413 8.38032 23315 ft 460 kts 129°
2026-04-22 15:48 50.68067 8.41478 23326 ft 463 kts 137°
2026-04-22 15:49 50.65436 8.44419 23331 ft 466 kts 146°
2026-04-22 15:49 50.62569 8.46832 23331 ft 467 kts 150°
2026-04-22 15:49 50.59677 8.49176 23324 ft 467 kts 149°
2026-04-22 15:49 50.56795 8.51549 23329 ft 468 kts 149°
2026-04-22 15:50 50.53924 8.53948 23335 ft 468 kts 149°
2026-04-22 15:50 50.51049 8.56371 23331 ft 469 kts 149°
2026-04-22 15:50 50.48179 8.58789 23321 ft 466 kts 149°
2026-04-22 15:50 50.45345 8.61309 23317 ft 466 kts 144°
2026-04-22 15:51 50.42687 8.64215 23309 ft 465 kts 139°
2026-04-22 15:51 50.40250 8.67531 23321 ft 464 kts 135°
2026-04-22 15:51 50.37848 8.70922 23313 ft 465 kts 135°
2026-04-22 15:51 50.35417 8.74284 23303 ft 466 kts 136°
2026-04-22 15:52 50.32972 8.77616 23298 ft 466 kts 136°
2026-04-22 15:52 50.30557 8.80970 23296 ft 462 kts 133°
2026-04-22 15:52 50.28520 8.84736 23295 ft 457 kts 121°
2026-04-22 15:52 50.26930 8.89027 23305 ft 454 kts 113°
2026-04-22 15:53 50.25723 8.93565 23306 ft 453 kts 107°
2026-04-22 15:53 50.24692 8.98212 23302 ft 452 kts 105°
2026-04-22 15:53 50.23721 9.02891 23297 ft 453 kts 105°
2026-04-22 15:53 50.22752 9.07571 23294 ft 453 kts 105°
2026-04-22 15:54 50.22099 9.10664 23293 ft 453 kts 105°
2026-04-22 15:54 50.21093 9.15333 23292 ft 453 kts 106°
2026-04-22 15:54 50.20074 9.19984 23305 ft 453 kts 106°
2026-04-22 15:54 50.18711 9.26155 23302 ft 453 kts 106°
2026-04-22 15:55 50.18017 9.29288 23306 ft 453 kts 106°
2026-04-22 15:55 50.16984 9.33927 23289 ft 453 kts 106°
2026-04-22 15:55 50.15949 9.38564 23288 ft 452 kts 106°
2026-04-22 15:55 50.14913 9.43198 23296 ft 451 kts 106°
2026-04-22 15:56 50.13891 9.47765 23304 ft 451 kts 106°
2026-04-22 15:56 50.12853 9.52387 23304 ft 451 kts 106°
2026-04-22 15:56 50.11813 9.57013 23297 ft 452 kts 106°
2026-04-22 15:56 50.10775 9.61630 23302 ft 452 kts 106°
2026-04-22 15:57 50.09734 9.66249 23312 ft 452 kts 106°
2026-04-22 15:57 50.08691 9.70859 23304 ft 451 kts 106°
2026-04-22 15:57 50.07817 9.75544 23298 ft 449 kts 99°
2026-04-22 15:57 50.07290 9.80318 23302 ft 447 kts 95°
2026-04-22 15:58 50.07018 9.85128 23297 ft 445 kts 90°
2026-04-22 15:58 50.07042 9.89927 23303 ft 443 kts 86°
2026-04-22 15:58 50.07121 9.94726 23310 ft 443 kts 86°
2026-04-22 15:58 50.07186 9.99459 23299 ft 443 kts 86°
2026-04-22 15:59 50.07236 10.04283 23309 ft 444 kts 87°
2026-04-22 15:59 50.07275 10.09087 23312 ft 444 kts 87°
2026-04-22 15:59 50.07303 10.13887 23312 ft 444 kts 88°
2026-04-22 15:59 50.07320 10.18694 23320 ft 444 kts 88°
2026-04-22 16:00 50.07335 10.23497 23313 ft 444 kts 88°
2026-04-22 16:00 50.07353 10.28303 23316 ft 443 kts 87°
2026-04-22 16:00 50.07378 10.33117 23315 ft 443 kts 87°
2026-04-22 16:00 50.07403 10.37858 23302 ft 443 kts 87°
2026-04-22 16:01 50.07426 10.42659 23318 ft 443 kts 87°
2026-04-22 16:01 50.07447 10.47457 23304 ft 443 kts 88°
2026-04-22 16:01 50.07465 10.52257 23322 ft 443 kts 88°
2026-04-22 16:01 50.07482 10.57046 23318 ft 443 kts 88°
2026-04-22 16:02 50.07496 10.61850 23310 ft 443 kts 88°
2026-04-22 16:02 50.07511 10.66639 23308 ft 439 kts 86°
2026-04-22 16:02 50.07924 10.71306 23302 ft 435 kts 72°
2026-04-22 16:02 50.09124 10.75570 23198 ft 424 kts 58°
2026-04-22 16:03 50.10899 10.79048 22852 ft 406 kts 46°
2026-04-22 16:03 50.12825 10.82160 22612 ft 393 kts 47°
2026-04-22 16:03 50.14644 10.85257 22362 ft 382 kts 48°
2026-04-22 16:03 50.16391 10.88295 22138 ft 371 kts 49°
2026-04-22 16:04 50.18085 10.91257 21930 ft 361 kts 49°
2026-04-22 16:04 50.19736 10.94142 21724 ft 351 kts 49°
2026-04-22 16:04 50.21343 10.96951 21525 ft 342 kts 49°
2026-04-22 16:04 50.22904 10.99682 21324 ft 333 kts 49°
2026-04-22 16:05 50.24462 11.02409 21292 ft 339 kts 49°
2026-04-22 16:05 50.26036 11.05168 20994 ft 340 kts 49°
2026-04-22 16:05 50.27614 11.07938 20521 ft 342 kts 49°
2026-04-22 16:05 50.29180 11.10687 20290 ft 333 kts 49°
2026-04-22 16:06 50.30692 11.13344 20209 ft 321 kts 49°
2026-04-22 16:06 50.32153 11.15915 20063 ft 311 kts 49°
2026-04-22 16:06 50.33574 11.18419 19805 ft 305 kts 49°
2026-04-22 16:06 50.35034 11.20780 19385 ft 301 kts 37°
2026-04-22 16:07 50.36892 11.22230 18879 ft 306 kts 18°
2026-04-22 16:07 50.38990 11.22718 18637 ft 305 kts
2026-04-22 16:07 50.41106 11.22605 18385 ft 303 kts
2026-04-22 16:07 50.43213 11.22406 18131 ft 304 kts 359°
2026-04-22 16:08 50.45313 11.22203 18127 ft 302 kts 360°
2026-04-22 16:08 50.47431 11.22011 18142 ft 306 kts
2026-04-22 16:08 50.49572 11.21832 18126 ft 309 kts
2026-04-22 16:08 50.51719 11.21661 18033 ft 308 kts
2026-04-22 16:09 50.53854 11.21495 17720 ft 306 kts
2026-04-22 16:09 50.55972 11.21333 17361 ft 303 kts
2026-04-22 16:09 50.58051 11.21179 16988 ft 302 kts
2026-04-22 16:09 50.60144 11.21024 16734 ft 299 kts
2026-04-22 16:10 50.62207 11.20914 16459 ft 293 kts
2026-04-22 16:10 50.64206 11.21425 16181 ft 290 kts 18°
2026-04-22 16:10 50.66099 11.22515 15941 ft 289 kts 25°
2026-04-22 16:10 50.67931 11.23836 15709 ft 290 kts 26°
2026-04-22 16:11 50.69762 11.25213 15448 ft 292 kts 27°
2026-04-22 16:11 50.71594 11.26593 15194 ft 292 kts 26°
2026-04-22 16:11 50.73430 11.27969 14959 ft 292 kts 26°
2026-04-22 16:11 50.75271 11.29340 14727 ft 292 kts 26°
2026-04-22 16:12 50.77101 11.30693 14482 ft 290 kts 26°
2026-04-22 16:12 50.78921 11.32034 14236 ft 285 kts 26°
2026-04-22 16:12 50.80677 11.33324 13973 ft 280 kts 26°
2026-04-22 16:12 50.82438 11.34617 13691 ft 278 kts 26°
2026-04-22 16:13 50.84187 11.35901 13417 ft 276 kts 26°
2026-04-22 16:13 50.85926 11.37179 13160 ft 275 kts 26°
2026-04-22 16:13 50.87666 11.38458 12896 ft 276 kts 26°
2026-04-22 16:13 50.89416 11.39745 12648 ft 278 kts 26°
2026-04-22 16:14 50.91171 11.41034 12393 ft 278 kts 26°
2026-04-22 16:14 50.92929 11.42330 12138 ft 279 kts 26°
2026-04-22 16:14 50.94691 11.43629 11872 ft 279 kts 26°
2026-04-22 16:14 50.96447 11.44923 11617 ft 278 kts 25°
2026-04-22 16:15 50.98203 11.46219 11388 ft 277 kts 26°
2026-04-22 16:15 50.99944 11.47504 11239 ft 272 kts 25°
2026-04-22 16:15 51.01635 11.48753 11234 ft 266 kts 25°
2026-04-22 16:15 51.03320 11.50000 11233 ft 269 kts 25°
2026-04-22 16:16 51.05005 11.51247 11246 ft 273 kts 25°
2026-04-22 16:16 51.06756 11.52544 11243 ft 275 kts 25°
2026-04-22 16:16 51.08483 11.53825 11231 ft 273 kts 25°
2026-04-22 16:16 51.10171 11.55107 11226 ft 269 kts 30°
2026-04-22 16:17 51.11560 11.57053 11228 ft 268 kts 53°
2026-04-22 16:17 51.12504 11.59645 11248 ft 273 kts 60°
2026-04-22 16:17 51.13385 11.62360 11236 ft 277 kts 60°
2026-04-22 16:17 51.14266 11.65082 11226 ft 276 kts 61°
2026-04-22 16:18 51.15145 11.67797 11231 ft 275 kts 60°
2026-04-22 16:18 51.16023 11.70500 11228 ft 274 kts 60°
2026-04-22 16:18 51.16899 11.73195 11230 ft 274 kts 60°
2026-04-22 16:18 51.17779 11.75900 11125 ft 277 kts 60°
2026-04-22 16:19 51.18670 11.78634 10897 ft 278 kts 60°
2026-04-22 16:19 51.19557 11.81357 10751 ft 274 kts 60°
2026-04-22 16:19 51.20430 11.84040 10600 ft 272 kts 60°
2026-04-22 16:19 51.21298 11.86709 10446 ft 271 kts 60°
2026-04-22 16:20 51.22163 11.89371 10293 ft 270 kts 60°
2026-04-22 16:20 51.22988 11.92050 10115 ft 267 kts 68°
2026-04-22 16:20 51.23294 11.95007 9952 ft 275 kts 84°
2026-04-22 16:20 51.23393 11.98092 9837 ft 281 kts 83°
2026-04-22 16:21 51.23535 12.01201 9688 ft 281 kts 82°
2026-04-22 16:21 51.23684 12.04297 9521 ft 279 kts 82°
2026-04-22 16:21 51.23831 12.07372 9361 ft 277 kts 82°
2026-04-22 16:21 51.23976 12.10393 9199 ft 276 kts 82°
2026-04-22 16:22 51.24268 12.16467 8875 ft 273 kts 82°
2026-04-22 16:22 51.24411 12.19487 8716 ft 272 kts 83°
2026-04-22 16:22 51.24552 12.22490 8567 ft 271 kts 83°
2026-04-22 16:23 51.24832 12.28483 8261 ft 270 kts 83°
2026-04-22 16:23 51.24971 12.31479 8108 ft 270 kts 83°
2026-04-22 16:23 51.25109 12.34474 7950 ft 271 kts 83°
2026-04-22 16:24 51.25276 12.37459 7786 ft 266 kts 77°
2026-04-22 16:24 51.26593 12.42881 7487 ft 260 kts 63°
2026-04-22 16:24 51.27352 12.45494 7316 ft 257 kts 63°
2026-04-22 16:25 51.28083 12.48070 7161 ft 251 kts 63°
2026-04-22 16:25 51.29434 12.52992 6847 ft 233 kts 64°
2026-04-22 16:25 51.30071 12.55343 6674 ft 230 kts 64°
2026-04-22 16:26 51.30703 12.57684 6511 ft 229 kts 64°
2026-04-22 16:26 51.31287 12.60048 6231 ft 229 kts 75°
2026-04-22 16:26 51.31474 12.62591 5978 ft 232 kts 84°
2026-04-22 16:26 51.31552 12.65138 5735 ft 234 kts 84°
2026-04-22 16:27 51.31640 12.67755 5491 ft 237 kts 83°
2026-04-22 16:27 51.31738 12.70398 5232 ft 239 kts 84°
2026-04-22 16:27 51.32091 12.72897 5018 ft 224 kts 53°
2026-04-22 16:27 51.33229 12.74375 4958 ft 209 kts 17°
2026-04-22 16:28 51.34650 12.74675 4714 ft 206 kts 355°
2026-04-22 16:28 51.36012 12.74130 4495 ft 200 kts 334°
2026-04-22 16:28 51.37134 12.72863 4262 ft 198 kts 310°
2026-04-22 16:28 51.37831 12.70992 4088 ft 194 kts 301°
2026-04-22 16:29 51.38492 12.69100 4050 ft 194 kts 302°
2026-04-22 16:29 51.39150 12.67240 4014 ft 190 kts 302°
2026-04-22 16:29 51.39801 12.65395 4030 ft 191 kts 301°
2026-04-22 16:29 51.40455 12.63536 3961 ft 191 kts 301°
2026-04-22 16:30 51.40887 12.62308 3905 ft 190 kts 301°
2026-04-22 16:30 51.41740 12.59877 3773 ft 188 kts 302°
2026-04-22 16:30 51.42370 12.58051 3674 ft 186 kts 296°
2026-04-22 16:30 51.42598 12.56032 3567 ft 185 kts 274°
2026-04-22 16:31 51.42626 12.53997 3540 ft 182 kts 273°
2026-04-22 16:31 51.42600 12.51967 3459 ft 182 kts 271°
2026-04-22 16:31 51.42526 12.49940 3404 ft 182 kts 269°
2026-04-22 16:31 51.42437 12.47903 3273 ft 186 kts 269°
2026-04-22 16:32 51.42340 12.45836 3002 ft 184 kts 270°
2026-04-22 16:32 51.42250 12.43836 2763 ft 179 kts 269°
2026-04-22 16:32 51.42157 12.41882 2520 ft 172 kts 269°
2026-04-22 16:32 51.42067 12.39991 2320 ft 169 kts 270°
2026-04-22 16:33 51.41982 12.38136 2092 ft 167 kts 270°
2026-04-22 16:33 51.41895 12.36284 1838 ft 164 kts 270°
2026-04-22 16:33 51.41815 12.34516 1614 ft 157 kts 270°
2026-04-22 16:33 51.41733 12.32810 1405 ft 151 kts 270°
2026-04-22 16:34 51.41657 12.31186 1221 ft 141 kts 269°
2026-04-22 16:34 51.41578 12.29617 1033 ft 142 kts 269°
2026-04-22 16:34 51.41512 12.27998 834 ft 148 kts 268°
2026-04-22 16:34 51.41421 12.26385 620 ft 143 kts 269°
2026-04-22 16:35 51.41366 12.24827 471 ft 132 kts 268°
2026-04-22 16:35 51.41310 12.23621 471 ft 77 kts 266°
2026-04-22 16:35 51.41278 12.23001 467 ft 29 kts 266°
2026-04-22 16:35 51.41231 12.22693 463 ft 29 kts 245°
2026-04-22 16:36 51.41147 12.22518 462 ft 11 kts 200°
2026-04-22 16:36 51.41118 12.22523 461 ft 1 kts 152°
2026-04-22 16:36 51.41103 12.22548 461 ft 4 kts 124°
2026-04-22 16:36 51.41096 12.22589 461 ft 4 kts 100°
2026-04-22 16:37 51.41098 12.22722 463 ft 22 kts 88°
2026-04-22 16:37 51.41107 12.22957 468 ft 16 kts 85°
2026-04-22 16:37 51.41116 12.23134 469 ft 16 kts 85°
2026-04-22 16:37 51.41123 12.23312 473 ft 16 kts 87°
2026-04-22 16:38 51.41132 12.23489 468 ft 16 kts 83°
2026-04-22 16:38 51.41140 12.23672 473 ft 17 kts 84°
2026-04-22 16:38 51.41147 12.23864 468 ft 18 kts 84°
2026-04-22 16:38 51.41158 12.24081 471 ft 21 kts 85°
2026-04-22 16:39 51.41171 12.24317 468 ft 21 kts 85°
2026-04-22 16:39 51.41177 12.24505 468 ft 10 kts 94°
2026-04-22 16:39 51.41128 12.24579 469 ft 11 kts 161°
2026-04-22 16:39 51.41069 12.24639 470 ft 9 kts 156°
2026-04-22 16:40 51.41003 12.24653 469 ft 10 kts 177°
2026-04-22 16:40 51.40925 12.24665 469 ft 12 kts 175°
2026-04-22 16:40 51.40879 12.24766 470 ft 8 kts 90°
2026-04-22 16:41 51.40881 12.24820 471 ft 4 kts 86°
2026-04-22 16:41 51.40881 12.24834 471 ft 0 kts 84°